RH
33 32 33 31 26 21 17 16 18 36 100 100 100 100 55 57 66 50 60 51 49 47 41 36 34 34 35 33 28 30 45 49 52 50 52 46 48 49 43 48 50 50 57
31 31 30 26 24 22 19 17 16 23 72 100 100 100 74 58 44 56 92 66 54 53 50 41 36 35 34 32 28 26 35 52 59 60 59 58 53 47 46 45 44 44 42
33 29 29 28 25 22 21 18 17 20 65 96 100 100 81 71 54 61 59 90 90 70 60 49 41 38 36 32 27 25 25 33 48 53 50 49 49 48 47 46 45 42 39
24 24 27 27 25 23 21 19 17 18 23 65 89 100 100 92 93 95 78 69 69 72 67 51 49 42 41 33 28 26 23 23 30 33 34 34 35 35 38 35 35 33 30
22 25 24 23 24 24 22 20 19 21 23 28 30 35 97 100 100 100 100 99 86 85 58 54 54 50 44 42 33 29 25 23 23 25 26 26 26 28 28 28 26 27 26
35 31 28 24 24 24 25 23 24 24 25 31 38 35 64 88 100 100 100 90 88 72 61 59 63 61 48 47 38 30 28 27 26 25 26 27 28 27 28 27 28 28 26
50 43 32 30 28 28 30 30 28 30 34 39 45 46 44 45 76 91 98 100 100 72 67 62 68 68 64 50 46 34 30 30 30 30 29 30 32 30 31 33 30 30 28
55 78 64 46 34 32 33 32 39 37 39 45 51 52 57 51 47 66 81 89 93 100 92 80 86 66 63 66 56 48 34 34 34 33 32 32 36 34 36 36 33 33 31
63 45 56 58 57 40 39 39 51 59 48 52 57 56 57 73 68 56 56 83 90 95 96 95 90 77 70 73 70 58 46 38 36 37 36 36 37 38 38 35 35 34 33
96 61 48 48 54 62 56 61 67 67 78 77 58 62 71 58 71 71 70 66 61 71 79 72 70 68 75 95 76 70 58 46 40 39 43 40 40 40 38 39 40 39 38
90 93 69 59 44 65 94 85 84 82 76 76 81 83 84 75 56 56 64 62 57 50 54 62 65 59 75 99 100 83 71 58 46 43 41 42 42 42 41 43 43 44 40
78 90 100 87 57 49 83 100 100 99 94 82 74 78 89 88 54 52 61 68 53 52 50 69 64 58 68 93 96 100 90 68 60 45 45 42 44 45 44 46 47 45 42
58 79 92 100 82 58 58 93 100 100 98 90 72 59 65 90 77 78 75 87 62 62 64 62 69 67 61 79 100 100 100 99 72 54 48 44 43 44 44 46 48 48 47
51 56 76 100 100 73 64 65 95 90 93 86 72 51 52 68 69 89 81 91 94 85 76 77 65 68 68 60 76 100 100 95 100 78 53 46 45 44 44 45 46 48 49
49 50 52 70 100 99 78 66 64 86 81 74 71 50 47 66 68 63 89 90 94 100 99 91 83 68 65 63 57 74 98 100 100 89 83 74 57 46 43 43 44 45 46
28 45 49 51 73 99 100 87 70 69 76 65 66 79 70 58 59 63 82 83 89 97 96 96 88 82 70 62 60 56 76 89 100 100 100 100 86 82 77 64 54 46 44
35 24 41 47 50 71 100 100 93 70 71 72 64 59 79 88 79 51 61 66 69 80 100 95 96 85 72 63 59 56 56 72 100 100 100 100 100 100 100 95 88 68 54
36 39 27 31 44 51 72 100 100 82 69 78 65 77 70 88 100 99 79 78 72 71 81 87 99 92 88 70 58 53 54 52 66 100 100 100 100 100 100 100 100 94 81
39 37 40 30 26 39 48 83 100 95 72 75 77 59 80 71 77 100 100 100 90 84 92 78 76 97 94 95 77 61 53 46 49 68 78 73 96 100 100 100 100 100 100
42 39 35 37 29 22 36 46 87 100 86 80 76 73 58 69 69 72 100 100 100 97 91 99 82 70 80 94 99 93 73 58 50 54 71 98 86 77 79 96 100 100 100
34 35 33 30 34 23 19 35 45 95 100 89 70 80 72 60 60 59 63 95 100 98 89 90 81 80 76 76 100 100 100 83 73 61 53 60 95 100 99 89 91 93 100
26 25 26 27 24 24 16 18 36 49 94 99 84 73 72 72 63 62 59 70 79 85 84 83 87 78 74 71 79 93 95 97 85 84 78 68 60 75 100 100 100 100 96
18 17 19 20 18 17 16 15 21 38 49 95 100 86 77 75 74 68 61 60 70 66 62 66 75 81 74 71 66 67 95 97 96 98 99 86 75 70 66 74 93 100 100
14 15 16 15 15 15 14 13 17 25 38 58 96 99 78 77 75 72 66 61 60 65 65 61 60 60 57 60 65 63 59 53 67 94 100 100 99 85 67 64 70 81 87
12 12 13 13 13 13 12 12 14 18 28 40 63 89 96 85 74 72 70 64 60 58 56 56 55 51 50 46 44 46 48 45 37 31 38 78 94 91 87 80 62 63 74
11 11 12 13 13 12 13 12 13 16 19 37 43 64 77 80 79 72 72 68 64 63 60 55 50 46 44 43 41 39 37 35 34 32 31 27 27 47 76 99 100 92 75
Wind_Speed
54 51 49 46 44 42 39 37 36 37 37 30 33 35 31 30 29 29 26 24 18 16 16 16 17 19 21 19 18 17 17 17 19 22 23 22 23 24 25 25 25 25 25
58 52 51 50 47 44 43 40 40 38 39 36 37 37 33 34 34 31 28 27 23 19 18 18 18 20 21 21 20 18 19 19 19 19 20 20 22 23 23 23 23 24 23
60 57 56 53 51 47 45 43 42 40 43 45 41 42 37 37 32 31 28 27 27 23 22 21 20 20 21 22 21 20 21 21 21 20 20 20 20 22 21 21 23 22 24
64 62 60 58 56 52 50 46 45 44 45 48 53 50 42 37 34 37 37 31 29 29 27 24 22 21 23 22 22 21 22 22 23 22 22 22 23 23 23 23 23 24 22
66 63 63 61 59 56 53 50 49 49 49 49 51 50 54 49 44 36 37 37 34 31 27 25 24 23 24 25 23 23 23 23 23 24 24 25 25 25 25 24 25 23 23
65 65 64 63 61 59 57 54 52 51 51 48 49 50 55 56 54 47 38 34 34 33 30 29 24 23 25 24 24 23 24 24 24 25 26 26 27 26 26 26 24 24 22
64 65 65 64 62 60 59 57 56 54 52 49 48 49 53 56 56 51 47 43 38 37 34 32 28 28 30 27 25 25 25 25 25 26 27 28 27 26 26 26 24 23 21
67 69 65 64 64 62 62 60 59 57 55 50 49 48 50 53 54 54 49 47 47 41 36 36 34 32 34 31 29 27 27 26 27 28 28 29 28 28 27 26 26 23 22
60 67 69 68 66 64 63 63 62 60 58 55 52 49 49 49 49 50 51 48 48 47 44 42 38 37 37 35 32 31 29 30 29 30 30 30 29 29 29 28 27 26 24
59 62 65 68 68 68 66 67 65 62 60 57 56 54 51 51 51 50 49 49 47 47 47 47 46 43 40 39 36 34 34 33 33 32 33 32 31 31 31 30 29 28 27
64 65 62 61 67 70 69 70 69 66 65 62 59 58 55 54 54 54 52 51 50 50 51 50 48 46 44 41 39 36 37 37 36 36 35 35 34 34 33 31 30 30 29
73 69 68 66 66 69 73 71 72 70 67 66 62 61 56 54 53 54 55 53 52 50 52 52 50 49 47 45 42 40 38 38 39 37 39 38 38 37 35 33 33 32 32
73 76 73 72 70 69 72 75 74 73 69 67 65 63 61 57 55 54 55 55 53 51 51 53 52 51 49 48 45 43 41 40 40 40 40 39 39 39 37 37 36 34 34
77 74 78 75 75 73 71 75 76 76 73 70 68 66 63 60 59 57 57 55 54 54 53 55 55 53 53 50 50 48 45 43 43 41 41 42 42 41 40 40 38 38 38
82 81 79 80 77 77 76 71 76 78 78 73 69 68 66 63 61 61 59 59 58 56 56 55 57 58 56 53 52 51 50 47 46 44 43 43 43 43 43 42 41 41 40
82 88 85 82 84 82 81 80 77 80 80 76 74 64 63 67 67 63 62 62 62 60 59 58 57 60 60 58 56 54 54 52 51 50 47 45 44 44 42 42 43 43 41
77 81 92 89 87 87 86 85 84 81 83 79 76 76 69 61 69 70 67 66 64 62 61 61 60 61 63 62 60 58 57 56 54 54 51 49 48 47 45 42 43 44 44
81 82 87 92 94 92 90 89 87 86 84 86 83 73 75 71 69 68 70 67 65 65 63 64 63 63 62 64 64 62 60 60 58 58 57 56 52 50 48 48 45 44 44
81 85 87 91 95 99 96 94 92 89 84 88 87 85 74 77 76 71 69 69 69 67 65 67 65 67 64 64 66 66 64 62 60 63 64 60 59 56 53 50 50 50 47
88 87 92 95 96 97 102 100 97 94 88 90 88 89 88 81 80 77 73 73 72 73 70 68 68 67 68 67 67 67 68 66 64 65 67 65 64 63 61 58 54 51 50
93 93 94 100 102 101 100 104 102 98 95 94 92 93 93 90 87 82 82 79 77 76 74 73 72 69 69 69 70 70 71 71 69 69 69 69 69 68 66 64 63 61 59
99 98 101 103 106 108 101 102 106 103 101 100 99 93 93 93 92 88 86 84 83 79 79 76 75 74 73 72 72 74 73 72 72 74 73 73 72 73 73 71 69 68 68
101 99 101 106 108 106 105 99 104 108 105 102 101 99 97 96 95 92 91 90 87 85 83 82 80 78 77 77 77 75 76 74 75 73 76 77 76 76 75 76 76 75 74
92 94 96 100 105 105 103 100 100 111 111 107 105 104 102 99 98 95 94 94 91 88 86 84 84 84 83 81 80 79 80 80 80 79 77 78 79 80 80 80 79 79 77
81 83 88 93 97 100 100 98 101 107 112 110 106 104 103 101 100 100 97 96 94 91 89 87 87 87 86 85 85 84 83 82 83 83 84 85 82 82 82 82 82 81 80
71 74 78 85 91 94 96 96 100 104 110 114 110 108 105 103 101 101 100 99 96 94 92 92 92 90 89 87 87 86 85 86 86 87 89 89 88 87 87 84 82 82 82
Wind_Direction
255 258 258 258 261 263 261 261 256 245 234 234 240 239 244 239 242 255 243 245 246 245 238 235 235 236 234 236 235 234 236 235 223 223 229 236 240 245 255 256 260 266 274
256 256 257 257 258 259 258 258 256 248 236 227 236 232 244 236 248 251 245 244 243 245 246 237 235 238 236 235 235 235 232 232 229 229 234 238 240 245 251 255 262 267 272
256 256 255 255 257 255 255 254 254 247 238 231 231 236 240 239 240 240 247 246 250 248 252 243 233 234 238 234 233 235 234 234 234 236 239 243 247 251 256 259 264 267 269
256 256 255 255 256 254 254 251 249 247 244 235 234 240 234 234 233 238 244 247 247 246 254 245 239 233 233 233 232 235 236 236 235 238 241 246 251 257 260 261 264 268 272
252 252 252 252 253 252 250 249 246 243 244 242 241 239 234 230 232 238 243 241 242 244 246 243 242 238 235 233 232 235 237 238 239 241 245 248 254 257 259 263 268 268 272
249 249 249 249 249 249 246 246 243 242 243 242 242 239 234 237 237 239 235 239 236 231 242 245 243 252 241 235 233 234 235 241 245 243 244 246 250 253 257 260 262 267 266
248 248 246 245 244 244 243 242 241 239 241 241 240 240 238 240 240 241 241 239 239 229 234 239 244 254 251 240 235 233 235 240 241 241 241 243 245 250 255 256 259 260 266
246 246 245 244 243 239 239 239 239 238 238 238 238 239 239 240 240 242 244 237 240 236 233 235 243 256 250 241 240 236 234 236 239 241 241 242 243 250 252 254 258 260 266
249 245 245 242 240 239 238 237 237 237 237 237 236 237 238 240 240 241 242 241 240 240 243 236 241 251 247 240 239 239 237 235 237 240 243 244 246 249 250 255 260 264 268
248 246 244 242 239 238 238 235 234 235 236 237 237 237 238 238 238 238 239 241 241 240 242 243 244 245 241 239 237 237 238 238 238 239 241 242 245 249 251 256 261 265 271
241 245 244 246 242 238 235 236 235 234 235 236 237 238 239 237 236 236 237 238 240 240 240 239 240 238 237 237 237 238 238 239 240 241 243 242 246 250 252 256 262 267 272
241 242 243 244 245 241 238 236 234 234 235 236 239 237 236 237 235 235 235 235 235 236 236 235 237 236 236 237 236 238 240 240 242 242 244 246 248 250 252 255 259 265 272
242 240 241 240 241 241 240 238 236 235 233 234 237 236 234 234 234 234 235 234 233 233 235 234 235 237 237 237 238 237 239 242 244 243 244 246 249 251 253 256 260 263 268
245 241 239 238 238 239 240 238 236 235 234 234 234 234 233 231 233 234 233 235 234 233 233 234 235 236 238 238 237 240 239 241 244 245 247 247 248 251 253 255 258 261 265
247 244 240 237 235 235 237 238 238 237 235 233 232 232 233 231 232 233 235 235 234 233 235 233 234 235 238 238 238 238 240 242 245 245 246 249 251 253 254 256 258 261 264
250 245 242 239 236 234 235 237 237 236 235 233 231 226 230 231 233 231 234 234 235 234 234 234 234 235 236 237 238 238 239 241 245 248 250 251 254 255 257 259 261 260 261
250 250 244 240 238 234 233 234 234 234 233 231 230 229 225 226 232 233 234 236 236 235 236 235 234 234 236 237 238 238 238 240 242 247 249 252 255 257 257 259 261 263 261
246 247 249 243 238 236 232 232 232 232 231 231 229 226 227 225 228 231 233 234 234 236 235 236 235 236 236 237 238 240 239 240 240 243 246 249 251 254 257 261 261 262 263
254 246 242 245 240 236 234 230 230 231 230 230 230 229 225 229 227 227 230 232 235 235 234 237 235 237 236 237 239 240 241 242 242 244 247 248 248 250 252 253 257 260 264
253 249 245 240 242 238 234 232 229 228 228 231 228 229 228 227 229 229 229 231 233 236 235 237 237 237 237 237 239 240 241 242 242 244 245 247 250 252 250 250 252 254 258
250 247 244 242 239 239 235 231 230 227 226 227 229 229 228 228 228 228 230 231 233 234 236 236 238 237 239 238 239 240 240 241 242 245 246 246 247 250 252 253 254 254 255
250 246 243 242 239 238 235 231 229 228 225 225 229 229 230 229 229 229 230 231 233 234 236 236 238 239 239 240 240 241 242 242 243 244 246 247 248 248 249 251 253 255 257
249 247 244 242 241 238 237 231 229 228 227 225 227 231 229 230 230 230 230 231 232 234 236 238 238 240 240 242 242 242 243 244 244 245 247 248 249 250 250 251 251 253 256
251 248 244 240 240 239 237 232 228 227 227 225 225 227 228 229 230 230 230 231 232 234 236 237 239 241 243 242 243 245 246 246 246 246 246 248 249 250 251 251 252 253 254
249 246 243 238 236 237 235 231 226 226 227 226 225 226 229 229 230 231 231 231 233 234 235 237 239 241 242 244 245 245 247 248 249 250 250 248 250 251 251 252 253 255 256
246 242 240 237 234 234 232 229 225 225 225 226 225 225 227 229 229 231 231 232 233 235 236 236 238 240 242 244 245 247 247 248 250 250 252 253 252 252 253 253 256 256 256